TimeAKST,TemperatureF,Dew PointF,Humidity,Sea Level PressureIn,VisibilityMPH,Wind Direction,Wind SpeedMPH,Gust SpeedMPH,PrecipitationIn,Events,Conditions,WindDirDegrees,DateUTC
12:53 AM,17.1,10.9,77,29.43,10.0,ENE,3.5,-,N/A,,Overcast,70,2014-01-13 09:53:00
1:53 AM,18.0,14.0,84,29.46,5.0,Calm,Calm,-,N/A,,Overcast,0,2014-01-13 10:53:00
2:29 AM,19.4,15.8,86,29.46,2.0,Calm,Calm,-,0.01,Snow,Light Snow,0,2014-01-13 11:29:00
2:53 AM,19.0,15.1,85,29.49,2.0,Calm,Calm,-,0.02,,Overcast,0,2014-01-13 11:53:00
3:42 AM,19.4,15.8,86,29.50,4.0,Calm,Calm,-,0.00,Snow,Light Snow,0,2014-01-13 12:42:00
3:53 AM,19.9,16.0,85,29.52,3.0,Calm,Calm,-,0.00,Snow,Light Snow,0,2014-01-13 12:53:00
4:53 AM,21.0,17.1,85,29.53,4.0,Calm,Calm,-,0.01,Snow,Light Snow,0,2014-01-13 13:53:00
5:53 AM,21.0,17.1,85,29.56,8.0,Calm,Calm,-,0.00,Snow,Light Snow,0,2014-01-13 14:53:00
6:53 AM,21.0,17.1,85,29.57,10.0,NNE,4.6,-,0.00,Snow,Light Snow,20,2014-01-13 15:53:00
7:53 AM,21.0,16.0,81,29.58,10.0,NNE,5.8,-,0.00,Snow,Light Snow,30,2014-01-13 16:53:00
8:53 AM,19.9,16.0,85,29.60,10.0,North,5.8,-,0.00,Snow,Light Snow,10,2014-01-13 17:53:00
9:00 AM,19.4,15.8,86,29.59,-9999.0,North,5.8,-,0.00,Snow,Light Snow,360,2014-01-13 18:00:00
9:53 AM,19.9,15.1,81,29.60,-9999.0,North,4.6,-,0.00,Snow,Light Snow,360,2014-01-13 18:53:00
9:57 AM,19.4,15.8,86,29.59,10.0,North,4.6,-,0.00,Snow,Light Snow,10,2014-01-13 18:57:00
10:53 AM,19.9,15.1,81,29.60,10.0,North,5.8,-,0.00,,Overcast,10,2014-01-13 19:53:00
11:53 AM,19.0,14.0,81,29.59,10.0,North,6.9,-,N/A,,Overcast,10,2014-01-13 20:53:00
12:53 PM,18.0,12.9,81,29.61,10.0,North,4.6,-,N/A,,Overcast,350,2014-01-13 21:53:00
1:53 PM,18.0,12.0,78,29.57,10.0,NE,6.9,-,N/A,,Overcast,40,2014-01-13 22:53:00
2:53 PM,18.0,12.0,78,29.52,10.0,NNE,8.1,-,N/A,,Overcast,20,2014-01-13 23:53:00
3:53 PM,18.0,12.9,81,29.49,10.0,North,6.9,-,N/A,,Overcast,10,2014-01-14 00:53:00
4:53 PM,18.0,12.0,78,29.46,10.0,North,6.9,-,N/A,,Overcast,10,2014-01-14 01:53:00
5:53 PM,17.1,12.0,81,29.43,10.0,North,8.1,-,N/A,,Mostly Cloudy,350,2014-01-14 02:53:00
6:53 PM,17.1,10.9,77,29.38,10.0,North,9.2,-,N/A,,Overcast,350,2014-01-14 03:53:00
7:53 PM,18.0,12.0,78,29.33,10.0,NNE,8.1,-,N/A,,Overcast,30,2014-01-14 04:53:00
7:58 PM,17.6,12.2,79,29.31,10.0,NNE,8.1,-,N/A,,Overcast,20,2014-01-14 04:58:00
8:53 PM,18.0,12.0,78,29.27,10.0,NNE,9.2,-,0.00,Snow,Light Snow,20,2014-01-14 05:53:00
9:53 PM,19.0,12.9,77,29.22,10.0,North,9.2,-,0.00,Snow,Light Snow,360,2014-01-14 06:53:00
10:53 PM,19.9,12.9,74,29.16,10.0,North,9.2,-,0.00,Snow,Light Snow,10,2014-01-14 07:53:00
11:53 PM,19.0,12.9,77,29.11,10.0,Calm,Calm,-,0.00,,Overcast,0,2014-01-14 08:53:00